Time,TemperatureF,DewpointF,PressureIn,WindDirection,WindDirectionDegrees,WindSpeedMPH,WindSpeedGustMPH,Humidity,HourlyPrecipIn,Conditions,Clouds,dailyrainin,SoftwareType,DateUTC
2013-04-28 00:03:00,74.0,-99.9,30.14,ENE,77,3.0,10.0,70,0.00,,,1.23,,2013-04-28 04:03:00,
2013-04-28 00:13:00,74.0,64.0,30.14,ENE,77,3.0,10.0,70,0.00,,,1.23,,2013-04-28 04:13:00,
2013-04-28 00:23:00,74.0,64.0,30.13,East,94,5.0,8.0,71,0.00,,,1.23,,2013-04-28 04:23:00,
2013-04-28 00:32:00,74.0,64.0,30.13,ENE,71,2.0,11.0,71,0.00,,,1.23,,2013-04-28 04:32:00,
2013-04-28 00:43:00,74.0,64.0,30.13,ENE,71,2.0,11.0,71,0.00,,,1.23,,2013-04-28 04:43:00,
2013-04-28 00:53:00,74.0,64.0,30.13,ENE,76,3.0,9.0,71,0.00,,,1.23,,2013-04-28 04:53:00,
2013-04-28 01:02:00,74.0,64.0,30.12,East,92,3.0,10.0,72,0.00,,,1.23,,2013-04-28 05:02:00,
2013-04-28 01:12:00,74.0,64.0,30.12,East,92,3.0,10.0,72,0.00,,,1.23,,2013-04-28 05:12:00,
2013-04-28 01:22:00,74.0,65.0,30.12,East,94,2.0,8.0,73,0.00,,,1.23,,2013-04-28 05:22:00,
2013-04-28 01:32:00,74.0,65.0,30.11,East,98,2.0,10.0,74,0.00,,,1.23,,2013-04-28 05:32:00,
2013-04-28 01:42:00,74.0,65.0,30.11,East,98,2.0,10.0,74,0.00,,,1.23,,2013-04-28 05:42:00,
2013-04-28 01:52:00,74.0,65.0,30.11,ESE,108,2.0,10.0,73,0.00,,,1.23,,2013-04-28 05:52:00,
2013-04-28 02:01:00,74.0,65.0,30.11,ESE,111,1.0,11.0,73,0.00,,,1.23,,2013-04-28 06:01:00,
2013-04-28 02:13:00,74.0,65.0,30.11,ESE,111,1.0,11.0,73,0.00,,,1.23,,2013-04-28 06:13:00,
2013-04-28 02:21:00,74.0,65.0,30.11,East,82,2.0,7.0,73,0.00,,,1.23,,2013-04-28 06:21:00,
2013-04-28 02:32:00,74.0,65.0,30.11,East,83,0.0,7.0,74,0.00,,,1.23,,2013-04-28 06:32:00,
2013-04-28 02:42:00,74.0,65.0,30.11,East,83,0.0,7.0,74,0.00,,,1.23,,2013-04-28 06:42:00,
2013-04-28 02:52:00,73.0,64.0,30.10,East,89,1.0,9.0,74,0.00,,,1.23,,2013-04-28 06:52:00,
2013-04-28 03:02:00,73.0,65.0,30.10,ENE,57,1.0,6.0,75,0.00,,,1.23,,2013-04-28 07:02:00,
2013-04-28 03:11:00,73.0,65.0,30.10,ENE,57,1.0,6.0,75,0.00,,,1.23,,2013-04-28 07:11:00,
2013-04-28 03:21:00,73.0,65.0,30.09,East,82,1.0,7.0,76,0.00,,,1.23,,2013-04-28 07:21:00,
2013-04-28 03:32:00,73.0,65.0,30.08,East,96,1.0,5.0,76,0.00,,,1.23,,2013-04-28 07:32:00,
2013-04-28 03:42:00,73.0,65.0,30.08,East,96,1.0,5.0,76,0.00,,,1.23,,2013-04-28 07:42:00,
2013-04-28 03:52:00,73.0,65.0,30.08,East,79,2.0,8.0,76,0.00,,,1.23,,2013-04-28 07:52:00,
2013-04-28 04:02:00,73.0,65.0,30.08,SE,145,2.0,8.0,75,0.00,,,1.23,,2013-04-28 08:02:00,
2013-04-28 04:12:00,73.0,65.0,30.08,SE,145,2.0,8.0,75,0.00,,,1.23,,2013-04-28 08:12:00,
2013-04-28 04:21:00,73.0,64.0,30.07,ESE,103,1.0,7.0,74,0.00,,,1.23,,2013-04-28 08:21:00,
2013-04-28 04:32:00,73.0,65.0,30.07,East,82,0.0,8.0,75,0.00,,,1.23,,2013-04-28 08:32:00,
2013-04-28 04:42:00,73.0,65.0,30.07,East,82,0.0,8.0,75,0.00,,,1.23,,2013-04-28 08:42:00,
2013-04-28 04:52:00,73.0,65.0,30.07,East,84,2.0,9.0,75,0.00,,,1.23,,2013-04-28 08:52:00,
2013-04-28 05:01:00,73.0,65.0,30.07,East,100,1.0,7.0,75,0.00,,,1.23,,2013-04-28 09:01:00,
2013-04-28 05:12:00,73.0,65.0,30.07,East,100,1.0,7.0,75,0.00,,,1.23,,2013-04-28 09:12:00,
2013-04-28 05:22:00,73.0,64.0,30.06,East,88,0.0,7.0,74,0.00,,,1.23,,2013-04-28 09:22:00,
2013-04-28 05:33:00,73.0,65.0,30.07,ESE,103,1.0,7.0,75,0.00,,,1.23,,2013-04-28 09:33:00,
2013-04-28 05:42:00,73.0,65.0,30.07,ESE,103,1.0,7.0,75,0.00,,,1.23,,2013-04-28 09:42:00,
2013-04-28 05:53:00,73.0,65.0,30.06,ESE,105,1.0,8.0,76,0.00,,,1.23,,2013-04-28 09:53:00,
2013-04-28 06:03:00,73.0,64.0,30.06,East,98,3.0,10.0,74,0.00,,,1.23,,2013-04-28 10:03:00,
2013-04-28 06:12:00,73.0,64.0,30.06,East,98,3.0,10.0,74,0.00,,,1.23,,2013-04-28 10:12:00,
2013-04-28 06:23:00,73.0,64.0,30.06,ENE,78,1.0,7.0,74,0.00,,,1.23,,2013-04-28 10:23:00,
2013-04-28 06:32:00,73.0,65.0,30.07,East,99,0.0,6.0,76,0.00,,,1.23,,2013-04-28 10:32:00,
2013-04-28 06:42:00,73.0,65.0,30.07,East,99,0.0,6.0,76,0.00,,,1.23,,2013-04-28 10:42:00,
2013-04-28 06:52:00,73.0,66.0,30.06,East,99,3.0,8.0,79,0.00,,,1.23,,2013-04-28 10:52:00,
2013-04-28 07:02:00,73.0,66.0,30.07,ESE,117,1.0,6.0,80,0.00,,,1.23,,2013-04-28 11:02:00,
2013-04-28 07:11:00,73.0,66.0,30.07,ESE,117,1.0,6.0,80,0.00,,,1.23,,2013-04-28 11:11:00,
2013-04-28 07:22:00,73.0,66.0,30.08,SE,124,1.0,9.0,79,0.00,,,1.23,,2013-04-28 11:22:00,
2013-04-28 07:32:00,73.0,66.0,30.08,East,100,1.0,9.0,79,0.00,,,1.23,,2013-04-28 11:32:00,
2013-04-28 07:42:00,73.0,66.0,30.08,East,100,1.0,9.0,79,0.00,,,1.23,,2013-04-28 11:42:00,
2013-04-28 07:52:00,73.0,66.0,30.08,East,90,1.0,9.0,79,0.00,,,1.23,,2013-04-28 11:52:00,
2013-04-28 08:02:00,74.0,66.0,30.08,SE,129,5.0,11.0,76,0.00,,,1.23,,2013-04-28 12:02:00,
2013-04-28 08:12:00,74.0,66.0,30.08,SE,129,5.0,11.0,76,0.00,,,1.23,,2013-04-28 12:12:00,
2013-04-28 08:22:00,74.0,66.0,30.08,SE,127,4.0,9.0,75,0.00,,,1.23,,2013-04-28 12:22:00,
2013-04-28 08:32:00,75.0,66.0,30.09,East,92,5.0,11.0,73,0.00,,,1.23,,2013-04-28 12:32:00,
2013-04-28 08:42:00,75.0,66.0,30.09,East,92,5.0,11.0,73,0.00,,,1.23,,2013-04-28 12:42:00,
2013-04-28 08:52:00,76.0,67.0,30.09,ESE,102,4.0,10.0,73,0.00,,,1.23,,2013-04-28 12:52:00,
2013-04-28 09:02:00,77.0,66.0,30.10,ESE,113,5.0,13.0,70,0.00,,,1.23,,2013-04-28 13:02:00,
2013-04-28 09:11:00,77.0,66.0,30.10,ESE,113,5.0,13.0,70,0.00,,,1.23,,2013-04-28 13:11:00,
2013-04-28 09:21:00,76.0,66.0,30.10,East,95,5.0,14.0,71,0.00,,,1.23,,2013-04-28 13:21:00,
2013-04-28 09:32:00,77.0,66.0,30.10,East,95,5.0,12.0,69,0.00,,,1.23,,2013-04-28 13:32:00,
2013-04-28 09:42:00,77.0,66.0,30.10,East,95,5.0,12.0,69,0.00,,,1.23,,2013-04-28 13:42:00,
2013-04-28 09:52:00,77.0,66.0,30.10,SE,138,4.0,11.0,69,0.00,,,1.23,,2013-04-28 13:52:00,
2013-04-28 10:02:00,78.0,67.0,30.11,ESE,115,5.0,13.0,68,0.00,,,1.23,,2013-04-28 14:02:00,
2013-04-28 10:11:00,78.0,67.0,30.11,ESE,115,5.0,13.0,68,0.00,,,1.23,,2013-04-28 14:11:00,
2013-04-28 10:22:00,78.0,66.0,30.11,ESE,108,6.0,13.0,67,0.00,,,1.23,,2013-04-28 14:22:00,
2013-04-28 10:32:00,78.0,67.0,30.11,ESE,115,5.0,11.0,68,0.00,,,1.23,,2013-04-28 14:32:00,
2013-04-28 10:42:00,78.0,67.0,30.11,ESE,115,5.0,11.0,68,0.00,,,1.23,,2013-04-28 14:42:00,
2013-04-28 10:52:00,79.0,65.0,30.11,ESE,120,4.0,14.0,62,0.00,,,1.23,,2013-04-28 14:52:00,
2013-04-28 11:02:00,80.0,65.0,30.11,ENE,58,5.0,14.0,60,0.00,,,1.23,,2013-04-28 15:02:00,
2013-04-28 11:12:00,80.0,65.0,30.11,ENE,58,5.0,14.0,60,0.00,,,1.23,,2013-04-28 15:12:00,
2013-04-28 11:21:00,80.0,64.0,30.11,ESE,103,4.0,14.0,59,0.00,,,1.23,,2013-04-28 15:21:00,
2013-04-28 11:32:00,80.0,64.0,30.12,ESE,119,5.0,13.0,59,0.00,,,1.23,,2013-04-28 15:32:00,
2013-04-28 11:42:00,80.0,64.0,30.12,ESE,119,5.0,13.0,59,0.00,,,1.23,,2013-04-28 15:42:00,
2013-04-28 11:53:00,80.0,64.0,30.11,ESE,117,5.0,14.0,58,0.00,,,1.23,,2013-04-28 15:53:00,
2013-04-28 12:03:00,80.0,63.0,30.11,East,98,6.0,11.0,57,0.00,,,1.23,,2013-04-28 16:03:00,
2013-04-28 12:13:00,80.0,63.0,30.11,East,98,6.0,11.0,57,0.00,,,1.23,,2013-04-28 16:13:00,
2013-04-28 12:23:00,82.0,66.0,30.11,ESE,103,3.0,11.0,59,0.00,,,1.23,,2013-04-28 16:23:00,
2013-04-28 12:33:00,81.0,64.0,30.11,ESE,103,5.0,14.0,56,0.00,,,1.23,,2013-04-28 16:33:00,
2013-04-28 12:43:00,81.0,64.0,30.11,ESE,103,5.0,14.0,56,0.00,,,1.23,,2013-04-28 16:43:00,
2013-04-28 12:52:00,81.0,65.0,30.11,East,89,6.0,12.0,58,0.00,,,1.23,,2013-04-28 16:52:00,
2013-04-28 13:02:00,81.0,64.0,30.11,ESE,115,4.0,15.0,56,0.00,,,1.23,,2013-04-28 17:02:00,
2013-04-28 13:12:00,81.0,64.0,30.11,ESE,115,4.0,15.0,56,0.00,,,1.23,,2013-04-28 17:12:00,
2013-04-28 13:22:00,82.0,65.0,30.11,East,100,6.0,14.0,56,0.00,,,1.23,,2013-04-28 17:22:00,
2013-04-28 13:32:00,81.0,63.0,30.11,East,94,4.0,11.0,54,0.00,,,0.00,,2013-04-28 17:32:00,
2013-04-28 13:42:00,81.0,63.0,30.11,East,94,4.0,11.0,54,0.00,,,0.00,,2013-04-28 17:42:00,
2013-04-28 13:52:00,82.0,64.0,30.11,East,100,4.0,10.0,54,0.00,,,0.00,,2013-04-28 17:52:00,
2013-04-28 14:02:00,82.0,64.0,30.10,East,90,3.0,13.0,54,0.00,,,0.00,,2013-04-28 18:02:00,
2013-04-28 14:12:00,82.0,64.0,30.10,East,90,3.0,13.0,54,0.00,,,0.00,,2013-04-28 18:12:00,
2013-04-28 14:22:00,82.0,66.0,30.10,ENE,78,4.0,10.0,58,0.00,,,0.00,,2013-04-28 18:22:00,
2013-04-28 14:32:00,82.0,64.0,30.09,East,89,2.0,13.0,55,0.00,,,0.00,,2013-04-28 18:32:00,
2013-04-28 14:42:00,82.0,64.0,30.09,East,89,2.0,13.0,55,0.00,,,0.00,,2013-04-28 18:42:00,
2013-04-28 14:52:00,82.0,64.0,30.08,ESE,121,8.0,13.0,54,0.00,,,0.00,,2013-04-28 18:52:00,
2013-04-28 15:02:00,82.0,64.0,30.08,ESE,105,5.0,14.0,54,0.00,,,0.00,,2013-04-28 19:02:00,
2013-04-28 15:11:00,82.0,64.0,30.08,ESE,105,5.0,14.0,54,0.00,,,0.00,,2013-04-28 19:11:00,
2013-04-28 15:22:00,82.0,65.0,30.07,East,99,4.0,11.0,57,0.00,,,0.00,,2013-04-28 19:22:00,
2013-04-28 15:32:00,82.0,66.0,30.06,ESE,109,3.0,14.0,58,0.00,,,0.00,,2013-04-28 19:32:00,
2013-04-28 15:42:00,82.0,66.0,30.06,ESE,109,3.0,14.0,58,0.00,,,0.00,,2013-04-28 19:42:00,
2013-04-28 15:52:00,82.0,66.0,30.06,ESE,107,5.0,12.0,58,0.00,,,0.00,,2013-04-28 19:52:00,
2013-04-28 16:02:00,82.0,67.0,30.05,ENE,77,6.0,14.0,60,0.00,,,0.00,,2013-04-28 20:02:00,
2013-04-28 16:12:00,82.0,67.0,30.05,ENE,77,6.0,14.0,60,0.00,,,0.00,,2013-04-28 20:12:00,
2013-04-28 16:22:00,81.0,66.0,30.05,ESE,104,3.0,12.0,61,0.00,,,0.00,,2013-04-28 20:22:00,
2013-04-28 16:32:00,81.0,65.0,30.04,SE,129,4.0,11.0,59,0.00,,,0.00,,2013-04-28 20:32:00,
2013-04-28 16:42:00,81.0,65.0,30.04,SE,129,4.0,11.0,59,0.00,,,0.00,,2013-04-28 20:42:00,
2013-04-28 16:52:00,81.0,66.0,30.03,East,89,4.0,11.0,61,0.00,,,0.00,,2013-04-28 20:52:00,
2013-04-28 17:01:00,81.0,67.0,30.03,East,82,7.0,15.0,62,0.00,,,0.00,,2013-04-28 21:01:00,
2013-04-28 17:11:00,81.0,67.0,30.03,East,82,7.0,15.0,62,0.00,,,0.00,,2013-04-28 21:11:00,
2013-04-28 17:22:00,80.0,66.0,30.03,East,92,5.0,11.0,62,0.00,,,0.00,,2013-04-28 21:22:00,
2013-04-28 17:33:00,80.0,65.0,30.03,ESE,111,3.0,11.0,61,0.00,,,0.00,,2013-04-28 21:33:00,
2013-04-28 17:42:00,80.0,65.0,30.03,ESE,111,3.0,11.0,61,0.00,,,0.00,,2013-04-28 21:42:00,
2013-04-28 17:52:00,80.0,66.0,30.02,ESE,108,2.0,12.0,63,0.00,,,0.00,,2013-04-28 21:52:00,
2013-04-28 18:03:00,80.0,67.0,30.02,ESE,111,3.0,12.0,65,0.00,,,0.00,,2013-04-28 22:03:00,
2013-04-28 18:13:00,80.0,67.0,30.02,ESE,111,3.0,12.0,65,0.00,,,0.00,,2013-04-28 22:13:00,
2013-04-28 18:23:00,79.0,67.0,30.02,SE,127,3.0,9.0,66,0.00,,,0.00,,2013-04-28 22:23:00,
2013-04-28 18:33:00,78.0,66.0,30.02,ESE,110,3.0,12.0,66,0.00,,,0.00,,2013-04-28 22:33:00,
2013-04-28 18:42:00,78.0,66.0,30.02,ESE,110,3.0,12.0,66,0.00,,,0.00,,2013-04-28 22:42:00,
2013-04-28 18:52:00,78.0,66.0,30.01,ESE,115,2.0,11.0,67,0.00,,,0.00,,2013-04-28 22:52:00,
2013-04-28 19:02:00,78.0,65.0,30.01,East,92,3.0,11.0,65,0.00,,,0.00,,2013-04-28 23:02:00,
2013-04-28 19:12:00,78.0,65.0,30.01,East,92,3.0,11.0,65,0.00,,,0.00,,2013-04-28 23:12:00,
2013-04-28 19:22:00,78.0,66.0,30.01,East,81,2.0,9.0,67,0.00,,,0.00,,2013-04-28 23:22:00,
2013-04-28 19:32:00,77.0,65.0,30.01,ENE,77,4.0,9.0,66,0.00,,,0.00,,2013-04-28 23:32:00,
2013-04-28 19:42:00,77.0,65.0,30.01,ENE,77,4.0,9.0,66,0.00,,,0.00,,2013-04-28 23:42:00,
2013-04-28 19:52:00,76.0,65.0,30.01,SE,146,1.0,9.0,68,0.00,,,0.00,,2013-04-28 23:52:00,
2013-04-28 20:01:00,76.0,65.0,30.02,SSE,153,3.0,8.0,69,0.00,,,0.00,,2013-04-29 00:01:00,
2013-04-28 20:11:00,76.0,65.0,30.02,SSE,153,3.0,8.0,69,0.00,,,0.00,,2013-04-29 00:11:00,
2013-04-28 20:22:00,76.0,65.0,30.02,ESE,104,1.0,10.0,69,0.00,,,0.00,,2013-04-29 00:22:00,
2013-04-28 20:32:00,76.0,66.0,30.02,ESE,107,1.0,7.0,71,0.00,,,0.00,,2013-04-29 00:32:00,
2013-04-28 20:42:00,76.0,66.0,30.02,ESE,107,1.0,7.0,71,0.00,,,0.00,,2013-04-29 00:42:00,
2013-04-28 20:52:00,76.0,66.0,30.02,ESE,120,1.0,4.0,72,0.00,,,0.00,,2013-04-29 00:52:00,
2013-04-28 21:01:00,76.0,67.0,30.02,East,96,1.0,7.0,73,0.00,,,0.00,,2013-04-29 01:01:00,
2013-04-28 21:12:00,75.0,66.0,30.02,East,88,1.0,8.0,73,0.00,,,0.00,,2013-04-29 01:12:00,
2013-04-28 21:22:00,75.0,66.0,30.02,East,88,1.0,8.0,73,0.00,,,0.00,,2013-04-29 01:22:00,
2013-04-28 21:32:00,75.0,66.0,30.03,ESE,103,1.0,9.0,73,0.00,,,0.00,,2013-04-29 01:32:00,
2013-04-28 21:42:00,75.0,66.0,30.03,ESE,103,1.0,9.0,73,0.00,,,0.00,,2013-04-29 01:42:00,
2013-04-28 21:52:00,75.0,66.0,30.03,East,89,2.0,9.0,73,0.00,,,0.00,,2013-04-29 01:52:00,
2013-04-28 22:02:00,75.0,65.0,30.03,East,87,2.0,6.0,72,0.00,,,0.00,,2013-04-29 02:02:00,
2013-04-28 22:11:00,75.0,65.0,30.03,East,87,2.0,6.0,72,0.00,,,0.00,,2013-04-29 02:11:00,
2013-04-28 22:22:00,75.0,65.0,30.03,East,88,3.0,9.0,72,0.00,,,0.00,,2013-04-29 02:22:00,
2013-04-28 22:32:00,75.0,65.0,30.03,ESE,123,2.0,8.0,72,0.00,,,0.00,,2013-04-29 02:32:00,
2013-04-28 22:42:00,75.0,65.0,30.03,ESE,123,2.0,8.0,72,0.00,,,0.00,,2013-04-29 02:42:00,
2013-04-28 22:52:00,75.0,66.0,30.04,ESE,114,0.0,8.0,74,0.00,,,0.00,,2013-04-29 02:52:00,
2013-04-28 23:01:00,75.0,66.0,30.03,ESE,118,3.0,9.0,74,0.00,,,0.00,,2013-04-29 03:01:00,
2013-04-28 23:12:00,75.0,66.0,30.03,ESE,118,3.0,9.0,74,0.00,,,0.00,,2013-04-29 03:12:00,
2013-04-28 23:21:00,75.0,66.0,30.03,SE,130,4.0,10.0,73,0.00,,,0.00,,2013-04-29 03:21:00,
2013-04-28 23:33:00,75.0,66.0,30.03,ESE,116,2.0,10.0,73,0.00,,,0.00,,2013-04-29 03:33:00,
2013-04-28 23:42:00,75.0,66.0,30.03,ESE,116,2.0,10.0,73,0.00,,,0.00,,2013-04-29 03:42:00,
2013-04-28 23:53:00,75.0,66.0,30.04,SE,129,1.0,7.0,74,0.00,,,0.00,,2013-04-29 03:53:00,